CPA181 VHHH-YSSY

Flight info

Callsign CPA181
Flight time N/A
Altitude 38000
Route DALOL V652 SABNO/N0488F390 A583 ZAM A461 BUTPA/N0482F410 DCT VEGPU DCT RUKSI DCT YUSEF DCT NOLES DCT 26S138E DCT OOM DCT APOMA Y52 VELGI Y105 TARAL Y59 TESAT
Aircraft A359/H-SDE2E3GHIJ3J4J5LM1ORWXY/LB1D1

Departure

Time N/A
Airport Hong Kong International Airport (VHHH)

Arrival

Time 2026-05-04 10:25
Airport Sydney Kingsford Smith International Airport (YSSY)
Time Latitude Longitude Altitude Speed Heading
2026-05-04 08:10 -22.92425 135.92046 41135 ft 559 kts 161°
2026-05-04 08:11 -22.95903 135.93934 41131 ft 559 kts 161°
2026-05-04 08:11 -23.06310 135.99593 41133 ft 560 kts 161°
2026-05-04 08:12 -23.13275 136.03384 41134 ft 560 kts 161°
2026-05-04 08:12 -23.20244 136.07184 41141 ft 560 kts 161°
2026-05-04 08:13 -23.27168 136.10963 41138 ft 560 kts 161°
2026-05-04 08:13 -23.34136 136.14771 41137 ft 560 kts 161°
2026-05-04 08:14 -23.41100 136.18580 41168 ft 561 kts 161°
2026-05-04 08:16 -23.69000 136.33888 41143 ft 562 kts 161°
2026-05-04 08:16 -23.75994 136.37736 41144 ft 563 kts 160°
2026-05-04 08:17 -23.82997 136.41594 41143 ft 564 kts 160°
2026-05-04 08:17 -23.89954 136.45432 41145 ft 564 kts 160°
2026-05-04 08:19 -24.17948 136.60923 41146 ft 565 kts 160°
2026-05-04 08:20 -24.24964 136.64817 41143 ft 566 kts 160°
2026-05-04 08:20 -24.31985 136.68719 41152 ft 565 kts 160°
2026-05-04 08:21 -24.39003 136.72624 41149 ft 566 kts 160°
2026-05-04 08:21 -24.46018 136.76533 41151 ft 566 kts 160°
2026-05-04 08:22 -24.52996 136.80425 41150 ft 566 kts 160°
2026-05-04 08:24 -24.81046 136.96123 41160 ft 566 kts 160°
2026-05-04 08:24 -24.88073 137.00067 41163 ft 566 kts 159°
2026-05-04 08:25 -24.95092 137.04012 41160 ft 566 kts 159°
2026-05-04 08:25 -25.02112 137.07964 41162 ft 566 kts 159°
2026-05-04 08:27 -25.27094 137.29907 41164 ft 577 kts 143°
2026-05-04 08:28 -25.33164 137.35719 41151 ft 577 kts 143°
2026-05-04 08:28 -25.39196 137.41479 41161 ft 577 kts 143°
2026-05-04 08:29 -25.45282 137.47288 41162 ft 578 kts 143°
2026-05-04 08:31 -25.69492 137.70519 41165 ft 577 kts 142°
2026-05-04 08:33 -25.93656 137.93841 41167 ft 574 kts 142°
2026-05-04 08:35 -26.17322 138.17648 41165 ft 576 kts 140°
2026-05-04 08:35 -26.23216 138.23690 41168 ft 577 kts 140°
2026-05-04 08:37 -26.43874 138.44874 41162 ft 577 kts 140°
2026-05-04 08:38 -26.49781 138.50954 41167 ft 578 kts 140°
2026-05-04 08:38 -26.55656 138.57010 41193 ft 578 kts 140°
2026-05-04 08:40 -26.78195 138.80331 41165 ft 576 kts 140°
2026-05-04 08:41 -26.85025 138.87423 41164 ft 576 kts 140°
2026-05-04 08:41 -26.90907 138.93540 41173 ft 577 kts 140°
2026-05-04 08:42 -26.96783 138.99661 41169 ft 575 kts 140°
2026-05-04 08:42 -27.01648 139.04737 41163 ft 574 kts 140°
2026-05-04 08:43 -27.08444 139.11837 41166 ft 575 kts 140°
2026-05-04 08:43 -27.13348 139.16965 41162 ft 575 kts 140°
2026-05-04 08:44 -27.19158 139.23052 41165 ft 575 kts 140°
2026-05-04 08:46 -27.42442 139.47538 41165 ft 572 kts 140°
2026-05-04 08:46 -27.48242 139.53659 41164 ft 572 kts 140°
2026-05-04 08:47 -27.54997 139.60800 41165 ft 573 kts 140°
2026-05-04 08:47 -27.60810 139.66957 41164 ft 573 kts 139°
2026-05-04 08:48 -27.65638 139.72076 41184 ft 573 kts 139°
2026-05-04 08:48 -27.71432 139.78231 41164 ft 572 kts 139°
2026-05-04 08:49 -27.77225 139.84392 41165 ft 572 kts 139°
2026-05-04 08:50 -27.97449 140.05976 41168 ft 573 kts 139°
2026-05-04 08:51 -28.03237 140.12175 41174 ft 572 kts 139°
2026-05-04 08:51 -28.08994 140.18364 41164 ft 570 kts 139°
2026-05-04 08:52 -28.14265 140.25028 41165 ft 572 kts 132°
2026-05-04 08:52 -28.19417 140.31920 41166 ft 573 kts 131°
2026-05-04 08:54 -28.39868 140.59627 41164 ft 574 kts 131°
2026-05-04 08:55 -28.44989 140.66577 41163 ft 573 kts 131°
2026-05-04 08:55 -28.50097 140.73523 41165 ft 573 kts 131°
2026-05-04 09:01 -29.03529 141.46872 41166 ft 575 kts 131°
2026-05-04 09:01 -29.08623 141.53933 41163 ft 575 kts 131°
2026-05-04 09:02 -29.13706 141.60991 41163 ft 575 kts 131°
2026-05-04 09:02 -29.18788 141.68060 41161 ft 575 kts 131°
2026-05-04 09:03 -29.23833 141.75090 41161 ft 575 kts 131°
2026-05-04 09:03 -29.28909 141.82174 41171 ft 575 kts 131°
2026-05-04 09:04 -29.33967 141.89247 41160 ft 573 kts 131°
2026-05-04 09:04 -29.39012 141.96313 41160 ft 573 kts 131°
2026-05-04 09:05 -29.44057 142.03390 41157 ft 573 kts 131°
2026-05-04 09:05 -29.49062 142.10424 41161 ft 573 kts 131°
2026-05-04 09:06 -29.54099 142.17516 41162 ft 573 kts 131°
2026-05-04 09:08 -29.74198 142.45936 41146 ft 573 kts 131°
2026-05-04 09:08 -29.79207 142.53051 41144 ft 572 kts 131°
2026-05-04 09:09 -29.84220 142.60182 41150 ft 573 kts 131°
2026-05-04 09:09 -29.89198 142.67278 41144 ft 574 kts 131°
2026-05-04 09:10 -29.94220 142.74428 41145 ft 574 kts 131°
2026-05-04 09:10 -29.99251 142.81558 41142 ft 574 kts 131°
2026-05-04 09:11 -30.04294 142.88716 41152 ft 574 kts 131°
2026-05-04 09:11 -30.09291 142.95831 41151 ft 574 kts 131°
2026-05-04 09:12 -30.14318 143.03006 41153 ft 574 kts 131°
2026-05-04 09:14 -30.34373 143.31757 41147 ft 575 kts 131°
2026-05-04 09:14 -30.39385 143.38976 41146 ft 575 kts 131°
2026-05-04 09:15 -30.44393 143.46201 41148 ft 575 kts 131°
2026-05-04 09:15 -30.49397 143.53433 41143 ft 575 kts 130°
2026-05-04 09:17 -30.71771 143.85933 41135 ft 574 kts 130°
2026-05-04 09:18 -30.76709 143.93143 41134 ft 574 kts 130°
2026-05-04 09:18 -30.81681 144.00415 41129 ft 574 kts 130°
2026-05-04 09:19 -30.86646 144.07691 41129 ft 574 kts 130°
2026-05-04 09:19 -30.91605 144.14971 41134 ft 574 kts 130°
2026-05-04 09:20 -30.96530 144.22215 41124 ft 574 kts 130°
2026-05-04 09:20 -31.01486 144.29517 41134 ft 574 kts 130°
2026-05-04 09:21 -31.06428 144.36813 41127 ft 573 kts 130°
2026-05-04 09:21 -31.11367 144.44119 41124 ft 573 kts 130°
2026-05-04 09:22 -31.16264 144.51376 41123 ft 573 kts 130°
2026-05-04 09:22 -31.21195 144.58696 41125 ft 574 kts 130°
2026-05-04 09:23 -31.26125 144.66028 41121 ft 574 kts 130°
2026-05-04 09:23 -31.31049 144.73367 41121 ft 574 kts 130°
2026-05-04 09:25 -31.50656 145.02725 41117 ft 571 kts 130°
2026-05-04 09:26 -31.55542 145.10074 41123 ft 572 kts 130°
2026-05-04 09:26 -31.60397 145.17392 41115 ft 572 kts 130°
2026-05-04 09:27 -31.65281 145.24768 41119 ft 572 kts 130°
2026-05-04 09:27 -31.70163 145.32155 41117 ft 573 kts 130°
2026-05-04 09:28 -31.75041 145.39551 41119 ft 573 kts 130°
2026-05-04 09:28 -31.79883 145.46905 41119 ft 573 kts 130°
2026-05-04 09:29 -31.84749 145.54311 41145 ft 573 kts 130°
2026-05-04 09:29 -31.89606 145.61719 41122 ft 570 kts 129°
2026-05-04 09:30 -31.94435 145.69105 41123 ft 569 kts 129°
2026-05-04 09:30 -31.99254 145.76492 41111 ft 569 kts 129°
2026-05-04 09:31 -32.04046 145.83831 41116 ft 570 kts 130°
2026-05-04 09:31 -32.08877 145.91245 41111 ft 570 kts 129°
2026-05-04 09:32 -32.13701 145.98670 41120 ft 570 kts 129°
2026-05-04 09:34 -32.32904 146.28379 41116 ft 568 kts 129°
2026-05-04 09:34 -32.37686 146.35818 41111 ft 568 kts 129°
2026-05-04 09:35 -32.42427 146.43205 41111 ft 567 kts 129°
2026-05-04 09:35 -32.47198 146.50651 41111 ft 567 kts 129°
2026-05-04 09:37 -32.66202 146.80462 41107 ft 567 kts 129°
2026-05-04 09:38 -32.70948 146.87944 41121 ft 567 kts 129°
2026-05-04 09:38 -32.75675 146.95412 41107 ft 565 kts 129°
2026-05-04 09:39 -32.80356 147.02822 41107 ft 564 kts 129°
2026-05-04 09:39 -32.85066 147.10292 41108 ft 564 kts 129°
2026-05-04 09:40 -32.89770 147.17767 41105 ft 565 kts 129°
2026-05-04 09:40 -32.94471 147.25253 41105 ft 565 kts 129°
2026-05-04 09:41 -32.96811 147.28986 40807 ft 559 kts 129°
2026-05-04 09:42 -33.13427 147.55586 38126 ft 579 kts 128°
2026-05-04 09:43 -33.18219 147.63298 38103 ft 577 kts 128°
2026-05-04 09:43 -33.22998 147.71004 38108 ft 577 kts 128°
2026-05-04 09:44 -33.27768 147.78711 38110 ft 577 kts 128°
2026-05-04 09:46 -33.48177 148.08020 38110 ft 573 kts 136°
2026-05-04 09:46 -33.53594 148.15022 38122 ft 573 kts 135°
2026-05-04 09:47 -33.58955 148.21995 38113 ft 572 kts 135°
2026-05-04 09:49 -33.80414 148.50108 38107 ft 571 kts 135°
2026-05-04 09:51 -33.99074 148.74711 38107 ft 569 kts 135°
2026-05-04 09:51 -34.04395 148.81761 38103 ft 568 kts 135°
2026-05-04 09:52 -34.09696 148.88802 37605 ft 564 kts 135°
2026-05-04 09:52 -34.12305 148.92268 36705 ft 567 kts 134°
2026-05-04 09:52 -34.14971 148.95815 35744 ft 572 kts 134°
2026-05-04 09:52 -34.17654 148.99388 34802 ft 576 kts 134°
2026-05-04 09:53 -34.20348 149.02979 34027 ft 577 kts 134°
2026-05-04 09:53 -34.23017 149.06540 33578 ft 566 kts 134°
2026-05-04 09:53 -34.25632 149.10040 33281 ft 555 kts 134°
2026-05-04 09:53 -34.28202 149.13484 32735 ft 550 kts 134°
2026-05-04 09:54 -34.30759 149.16912 32014 ft 544 kts 133°
2026-05-04 09:54 -34.33238 149.20240 30773 ft 539 kts 133°
2026-05-04 09:54 -34.35756 149.23617 29235 ft 540 kts 132°
2026-05-04 09:54 -34.38251 149.26967 28122 ft 530 kts 132°
2026-05-04 09:55 -34.40541 149.30405 26999 ft 520 kts 123°
2026-05-04 09:55 -34.42319 149.34146 26025 ft 510 kts 111°
2026-05-04 09:55 -34.43342 149.37712 25470 ft 503 kts 100°
2026-05-04 09:55 -34.44102 149.41823 25170 ft 498 kts 96°
2026-05-04 09:56 -34.44695 149.45944 25101 ft 495 kts 94°
2026-05-04 09:56 -34.45199 149.50064 25088 ft 493 kts 93°
2026-05-04 09:56 -34.45663 149.54135 25088 ft 479 kts 92°
2026-05-04 09:56 -34.46117 149.58100 25090 ft 471 kts 93°
2026-05-04 09:57 -34.46954 149.61877 25071 ft 473 kts 110°
2026-05-04 09:57 -34.48622 149.65314 25079 ft 475 kts 128°
2026-05-04 09:57 -34.50998 149.68078 25083 ft 473 kts 146°
2026-05-04 09:57 -34.53853 149.69991 25086 ft 468 kts 160°
2026-05-04 09:58 -34.56858 149.71508 25084 ft 468 kts 162°
2026-05-04 09:58 -34.59716 149.73317 25075 ft 459 kts 148°
2026-05-04 09:58 -34.62124 149.75780 25079 ft 450 kts 132°
2026-05-04 10:00 -34.58790 149.94342 23424 ft 323 kts 351°
2026-05-04 10:00 -34.56589 149.94031 23152 ft 317 kts 344°
2026-05-04 10:02 -34.44484 150.05641 21319 ft 375 kts 56°
2026-05-04 10:04 -34.36216 150.24847 18779 ft 359 kts 54°
2026-05-04 10:04 -34.35033 150.27491 17949 ft 355 kts 54°
2026-05-04 10:04 -34.33866 150.30101 17029 ft 350 kts 54°
2026-05-04 10:04 -34.32718 150.32671 16168 ft 345 kts 54°
2026-05-04 10:05 -34.31583 150.35210 15266 ft 341 kts 55°
2026-05-04 10:05 -34.30448 150.37741 14018 ft 346 kts 55°
2026-05-04 10:05 -34.29284 150.40316 12922 ft 347 kts 55°
2026-05-04 10:05 -34.28170 150.42808 12470 ft 326 kts 56°
2026-05-04 10:06 -34.27130 150.45170 11850 ft 313 kts 55°
2026-05-04 10:06 -34.26109 150.47463 11098 ft 307 kts 55°
2026-05-04 10:06 -34.25123 150.49681 10392 ft 301 kts 55°
2026-05-04 10:08 -34.19342 150.62529 8367 ft 290 kts 56°
2026-05-04 10:08 -34.18379 150.64676 8053 ft 292 kts 56°
2026-05-04 10:08 -34.17418 150.66827 7861 ft 291 kts 56°
2026-05-04 10:08 -34.16468 150.68945 7749 ft 290 kts 56°
2026-05-04 10:09 -34.15503 150.71085 7648 ft 291 kts 56°
2026-05-04 10:09 -34.14536 150.73226 7520 ft 289 kts 56°
2026-05-04 10:09 -34.13575 150.75361 7388 ft 290 kts 56°
2026-05-04 10:09 -34.12616 150.77486 7297 ft 284 kts 55°
2026-05-04 10:10 -34.11696 150.79538 7103 ft 274 kts 54°
2026-05-04 10:10 -34.10794 150.81540 6765 ft 271 kts 54°
2026-05-04 10:10 -34.09893 150.83531 6358 ft 270 kts 54°
2026-05-04 10:10 -34.09002 150.85512 6087 ft 268 kts 54°
2026-05-04 10:11 -34.08126 150.87451 5985 ft 265 kts 54°
2026-05-04 10:11 -34.07270 150.89359 5981 ft 256 kts 54°
2026-05-04 10:11 -34.06424 150.91240 5980 ft 255 kts 54°
2026-05-04 10:11 -34.05575 150.93119 5974 ft 255 kts 54°
2026-05-04 10:12 -34.04726 150.95000 5973 ft 255 kts 54°
2026-05-04 10:12 -34.03883 150.96874 5973 ft 254 kts 54°
2026-05-04 10:12 -34.03258 150.98858 5969 ft 263 kts 72°
2026-05-04 10:12 -34.03256 151.00717 5965 ft 273 kts 97°
2026-05-04 10:13 -34.04070 151.02798 5977 ft 280 kts 126°
2026-05-04 10:13 -34.05376 151.04555 5962 ft 283 kts 133°
2026-05-04 10:13 -34.06720 151.06201 5959 ft 267 kts 133°
2026-05-04 10:13 -34.08121 151.07567 5839 ft 261 kts 151°
2026-05-04 10:14 -34.09817 151.08281 5551 ft 257 kts 169°
2026-05-04 10:14 -34.11559 151.08728 5099 ft 256 kts 171°
2026-05-04 10:16 -34.22730 151.12806 2973 ft 232 kts 116°
2026-05-04 10:16 -34.23131 151.14619 2971 ft 222 kts 88°
2026-05-04 10:16 -34.23166 151.16456 2969 ft 217 kts 83°
2026-05-04 10:16 -34.23144 151.18273 2967 ft 215 kts 82°
2026-05-04 10:17 -34.23126 151.19924 2967 ft 212 kts 83°
2026-05-04 10:17 -34.23062 151.21597 2965 ft 209 kts 76°
2026-05-04 10:19 -34.15511 151.23024 2968 ft 170 kts 346°
2026-05-04 10:19 -34.14361 151.22725 2967 ft 172 kts 347°
2026-05-04 10:19 -34.13189 151.22427 2966 ft 172 kts 347°
2026-05-04 10:19 -34.12069 151.22142 2951 ft 153 kts 347°
2026-05-04 10:20 -34.11103 151.21895 2902 ft 136 kts 347°
2026-05-04 10:20 -34.10186 151.21654 2762 ft 134 kts 347°
2026-05-04 10:20 -34.09275 151.21419 2584 ft 134 kts 347°
2026-05-04 10:20 -34.08355 151.21178 2401 ft 136 kts 348°
2026-05-04 10:21 -34.07434 151.20935 2217 ft 135 kts 346°
2026-05-04 10:21 -34.06510 151.20693 2037 ft 137 kts 348°
2026-05-04 10:21 -34.05577 151.20449 1851 ft 136 kts 348°
2026-05-04 10:21 -34.04672 151.20215 1688 ft 134 kts 347°
2026-05-04 10:22 -34.02842 151.19737 1326 ft 136 kts 349°
2026-05-04 10:22 -34.01914 151.19495 1141 ft 137 kts 347°
2026-05-04 10:22 -34.00985 151.19249 970 ft 135 kts 350°
2026-05-04 10:23 -34.00074 151.19018 802 ft 134 kts 346°
2026-05-04 10:23 -33.99160 151.18776 628 ft 135 kts 350°
2026-05-04 10:25 -33.94582 151.17566 37 ft 34 kts 339°
2026-05-04 10:25 -33.94409 151.17445 36 ft 14 kts 321°
2026-05-04 10:25 -33.94373 151.17408 37 ft 1 kts 320°
2026-05-04 10:25 -33.94330 151.17362 37 ft 11 kts 318°
2026-05-04 10:26 -33.94268 151.17308 36 ft 11 kts 335°
2026-05-04 10:26 -33.94176 151.17277 35 ft 16 kts 346°
2026-05-04 10:26 -33.94071 151.17246 35 ft 15 kts 347°
2026-05-04 10:26 -33.93991 151.17220 35 ft 5 kts 320°
2026-05-04 10:27 -33.93985 151.17174 36 ft 7 kts 266°
2026-05-04 10:27 -33.94000 151.17099 36 ft 11 kts 254°
2026-05-04 10:27 -33.94025 151.16994 36 ft 12 kts 255°
2026-05-04 10:27 -33.94044 151.16909 36 ft 10 kts 254°
2026-05-04 10:28 -33.94055 151.16851 36 ft 4 kts 271°
2026-05-04 10:28 -33.94035 151.16820 36 ft 8 kts 322°
2026-05-04 10:28 -33.93974 151.16791 36 ft 8 kts 342°
2026-05-04 10:28 -33.93925 151.16779 36 ft 6 kts
2026-05-04 10:29 -33.93907 151.16802 36 ft 3 kts 63°
2026-05-04 10:29 -33.93902 151.16819 36 ft 1 kts 70°
2026-05-04 10:29 -33.93898 151.16834 36 ft 3 kts 72°
2026-05-04 10:29 -33.93893 151.16853 36 ft 1 kts 73°
2026-05-04 10:30 -33.93892 151.16854 36 ft 0 kts 73°
2026-05-04 10:30 -33.93890 151.16863 36 ft 0 kts 73°